15min,AgWx,beryljct,423,23AUG2021:00:00:00,60.8,12.86,54.2,53.9,55.5,58.6,53.9,66,70,57,0.994,44.1,44.6,43.3,6.182,5.6,140,5.0,7.2,0.00011,0.00017,66.8,68.8,14,0,0,.,13.53,0.00,0.00
15min,AgWx,beryljct,423,23AUG2021:00:15:00,59.2,12.85,55.2,53.2,54.4,56.2,52.9,69,71,63,0.983,44.3,44.8,42.9,2.477,4.6,159,41,6.6,0.00004,0.00008,66.6,68.8,13,0,0,.,13.54,0.00,0.00
15min,AgWx,beryljct,423,23AUG2021:00:30:00,57.9,12.84,59.4,58.1,54.9,58.1,53.4,65,71,55,0.916,43.3,44.1,42.3,0.745,0.9,250,0.6,2.9,-0.00023,-0.00032,66.3,68.7,14,0,0,.,13.53,0.00,0.00
15min,AgWx,beryljct,423,23AUG2021:00:45:00,57.3,12.84,55.5,55.1,57.6,58.5,54.5,56,63,54,0.919,42.2,42.5,42.0,1.425,1.5,235,15,2.8,-0.00016,-0.00020,66.0,68.6,13,0,0,.,13.53,0.00,0.00
15min,AgWx,beryljct,423,23AUG2021:01:00:00,56.6,12.84,52.9,51.8,53.9,55.8,51.3,67,76,61,1.001,43.3,44.6,42.0,1.469,1.4,85,26,5.0,-0.00018,-0.00024,65.8,68.5,13,0,0,.,13.53,0.00,0.00
15min,AgWx,beryljct,423,23AUG2021:01:15:00,55.5,12.82,52.1,51.4,51.5,52.5,50.7,75,77,74,0.960,43.9,44.7,43.4,1.863,1.4,94,15,3.2,-0.00019,-0.00026,65.5,68.4,14,0,0,.,13.54,0.00,0.00
15min,AgWx,beryljct,423,23AUG2021:01:30:00,54.5,12.82,50.6,50.1,50.7,51.7,50.0,75,78,72,0.956,43.0,43.6,42.3,0.745,1.3,135,11,3.0,-0.00019,-0.00026,65.3,68.3,13,0,0,.,13.54,0.00,0.00
15min,AgWx,beryljct,423,23AUG2021:01:45:00,53.6,12.81,52.1,52.1,51.4,52.3,50.1,74,78,70,0.935,43.4,43.7,42.8,2.302,1.7,203,27,3.1,-0.00017,-0.00021,65.0,68.3,13,0,0,.,13.54,0.00,0.00
15min,AgWx,beryljct,423,23AUG2021:02:00:00,52.9,12.8,52.0,50.3,50.7,52.4,49.1,72,78,66,0.883,41.9,43.1,40.5,0.044,2.0,227,5.1,3.8,-0.00013,-0.00016,64.7,68.2,13,0,0,.,13.54,0.00,0.00
15min,AgWx,beryljct,423,23AUG2021:02:15:00,52.4,12.79,55.3,53.4,52.4,55.8,50.5,64,71,55,0.870,40.7,41.6,40.0,0,0.5,231,0.2,1.5,-0.00028,-0.00042,64.4,68.1,13,0,0,.,13.54,0.00,0.00
15min,AgWx,beryljct,423,23AUG2021:02:30:00,52.1,12.79,55.2,53.3,53.1,55.0,51.8,61,63,57,0.838,40.0,40.8,39.1,0.745,0.3,230,1.3,1.6,-0.00031,-0.00048,64.2,68.0,13,0,0,.,13.53,0.00,0.00
15min,AgWx,beryljct,423,23AUG2021:02:45:00,51.8,12.77,51.7,50.7,51.6,53.9,49.6,64,69,59,0.848,39.8,40.5,39.1,0,0.4,230,0.2,1.6,-0.00029,-0.00044,63.9,67.9,13,0,0,.,13.54,0.00,0.00
15min,AgWx,beryljct,423,23AUG2021:03:00:00,51.5,12.76,52.5,53.6,51.2,53.6,49.4,63,67,54,0.762,38.9,40.2,37.3,0,0.8,248,8.4,4.7,-0.00023,-0.00033,63.7,67.8,13,0,0,.,13.54,0.00,0.00
15min,AgWx,beryljct,423,23AUG2021:03:15:00,51.2,12.76,48.3,49.3,51.1,53.6,48.8,61,68,51,0.785,38.0,39.0,35.5,4.45,1.4,220,26,4.5,-0.00017,-0.00023,63.4,67.7,13,0,0,.,13.54,0.00,0.00
15min,AgWx,beryljct,423,23AUG2021:03:30:00,50.8,12.75,50.4,50.6,49.4,51.2,47.6,64,68,60,0.785,37.6,38.3,37.2,6.007,2.3,206,51,6.6,-0.00009,-0.00010,63.2,67.6,13,0,0,.,13.54,0.00,0.00
15min,AgWx,beryljct,423,23AUG2021:03:45:00,50.3,12.75,48.4,48.0,48.7,50.9,46.2,68,76,63,0.780,38.7,39.3,38.0,0.548,1.7,54,34,4.9,-0.00014,-0.00017,63.0,67.4,13,0,0,.,13.54,0.00,0.00
15min,AgWx,beryljct,423,23AUG2021:04:00:00,49.6,12.72,44.3,47.7,47.7,48.4,46.4,69,73,67,0.760,38.2,38.7,37.4,4.012,1.1,305,41,4.0,-0.00021,-0.00029,62.8,67.4,13,0,0,.,13.54,0.00,0.00
15min,AgWx,beryljct,423,23AUG2021:04:15:00,49.0,12.72,46.4,47.9,48.1,49.2,46.7,67,73,63,0.741,37.7,38.5,36.8,1.447,0.6,306,0.9,3.0,-0.00025,-0.00036,62.5,67.2,13,0,0,.,13.54,0.00,0.00
15min,AgWx,beryljct,423,23AUG2021:04:30:00,48.4,12.71,49.1,47.3,47.2,48.2,45.8,69,73,66,0.768,37.6,38.1,36.8,2.938,0.9,40,63,3.3,-0.00022,-0.00031,62.3,67.1,13,0,0,.,13.54,0.00,0.00
15min,AgWx,beryljct,423,23AUG2021:04:45:00,48.0,12.69,44.0,45.9,47.5,50.1,45.6,65,72,57,0.723,36.4,37.6,35.2,3.924,1.4,176,45,5.4,-0.00016,-0.00022,62.1,67.0,13,0,0,.,13.54,0.00,0.00
15min,AgWx,beryljct,423,23AUG2021:05:00:00,47.4,12.7,45.4,45.9,44.8,46.3,43.2,75,80,66,0.701,37.2,38.2,35.4,1.293,1.1,318,22,4.0,-0.00020,-0.00027,61.9,66.9,13,0,0,.,13.54,0.00,0.00
15min,AgWx,beryljct,423,23AUG2021:05:15:00,46.9,12.69,44.8,44.7,45.6,46.7,44.7,68,71,64,0.703,35.5,36.0,34.9,0,1.3,320,1.7,3.2,0.00011,0.00018,61.7,66.8,13,0,0,.,13.54,0.00,0.00
15min,AgWx,beryljct,423,23AUG2021:05:30:00,46.3,12.69,47.8,47.4,45.0,47.4,43.3,67,75,58,0.644,34.8,35.9,33.3,1.513,0.7,318,0.3,2.0,0.00006,0.00010,61.5,66.7,13,0,0,.,13.54,0.00,0.00
15min,AgWx,beryljct,423,23AUG2021:05:45:00,46.0,12.67,44.6,44.4,46.4,47.6,44.4,62,69,57,0.681,34.0,34.7,33.3,1.776,2.2,312,5.7,3.8,0.00020,0.00035,61.3,66.5,13,0,0,.,13.54,0.00,0.00
15min,AgWx,beryljct,423,23AUG2021:06:00:00,45.6,12.66,45.6,44.7,45.0,45.6,44.4,66,69,62,0.671,34.3,34.8,33.4,0.351,1.3,295,19,3.1,0.00013,0.00021,61.0,66.4,14,3,0,.,13.54,0.00,0.00
15min,AgWx,beryljct,423,23AUG2021:06:15:00,45.7,12.69,48.1,44.9,46.6,48.4,44.8,60,68,54,0.686,33.5,34.9,32.2,4.582,3.1,222,21,5.6,0.00039,0.00060,60.9,66.3,13,22,0,.,13.53,0.00,0.00
15min,AgWx,beryljct,423,23AUG2021:06:30:00,46.1,12.7,46.7,46.8,45.1,47.1,44.3,70,76,62,0.731,36.0,37.4,34.2,2.565,4.4,196,9.0,6.1,0.00055,0.00077,60.6,66.2,14,59,0,.,13.54,0.00,0.00
15min,AgWx,beryljct,423,23AUG2021:06:45:00,47.1,12.7,51.7,52.0,49.6,52.4,46.7,61,68,52,0.789,36.6,38.4,35.1,0.636,1.9,166,9.8,3.2,0.00066,0.00084,60.4,66.1,13,100,0,.,13.54,0.00,0.00
15min,AgWx,beryljct,423,23AUG2021:07:00:00,49.1,12.7,53.8,53.8,52.0,53.8,49.7,62,74,53,0.857,39.4,41.9,36.4,2.368,2.2,178,10,3.1,0.00088,0.00108,60.3,65.9,14,143,0,.,13.53,0.00,0.00
15min,AgWx,beryljct,423,23AUG2021:07:15:00,51.8,12.72,58.2,57.7,55.1,57.7,53.2,63,71,51,0.830,42.5,44.2,39.7,1.951,0.8,165,1.5,2.3,0.00106,0.00119,60.1,65.8,13,191,0,.,13.53,0.00,0.00
15min,AgWx,beryljct,423,23AUG2021:07:30:00,54.7,12.77,57.1,57.6,58.1,59.5,57.3,51,59,44,0.904,40.1,43.2,36.9,3.42,2.6,62,93,5.7,0.00156,0.00190,60.0,65.7,13,242,0,.,13.53,0.00,0.00
15min,AgWx,beryljct,423,23AUG2021:07:45:00,57.4,12.93,57.7,57.6,57.4,57.7,57.0,57,60,54,0.871,42.2,43.9,40.9,2.083,2.7,334,11,3.9,0.00178,0.00211,59.8,65.6,13,294,0,.,13.53,0.00,0.00
15min,AgWx,beryljct,423,23AUG2021:08:00:00,59.6,13.19,60.2,59.8,58.6,59.8,57.5,52,55,49,0.856,41.1,42.2,40.1,1.732,2.0,325,0.1,2.5,0.00207,0.00239,59.7,65.5,13,346,0,.,13.52,0.00,0.00
15min,AgWx,beryljct,423,23AUG2021:08:15:00,61.9,13.55,64.9,64.3,61.8,64.3,59.9,41,50,35,0.788,37.9,41.2,34.8,2.609,2.6,352,21,3.6,0.00255,0.00302,59.6,65.4,13,398,0,.,13.52,0.00,0.00
15min,AgWx,beryljct,423,23AUG2021:08:30:00,64.4,14.17,65.7,65.0,64.6,65.0,64.2,37,43,33,0.842,37.9,41.3,35.0,1.403,2.6,348,18,3.8,0.00297,0.00351,59.6,65.3,13,451,0,.,13.51,0.00,0.00
15min,AgWx,beryljct,423,23AUG2021:08:45:00,67.1,14.15,68.8,68.6,66.8,68.6,65.0,32,40,28,0.724,35.8,40.1,33.0,0.855,1.7,334,4.7,2.3,0.00326,0.00372,59.6,65.1,13,501,0,.,13.51,0.00,0.00
15min,AgWx,beryljct,423,23AUG2021:09:00:00,70.2,14.11,71.8,71.4,70.6,72.4,68.7,29,32,26,0.825,37.1,39.7,34.9,1.6,1.6,82,68,4.6,0.00369,0.00419,59.5,65.0,13,550,0,.,13.50,0.00,0.00
15min,AgWx,beryljct,423,23AUG2021:09:15:00,72.7,14.05,72.3,73.1,72.2,73.2,71.3,32,37,27,0.864,40.9,43.6,37.0,5.196,4.2,87,9.4,5.8,0.00436,0.00525,59.4,64.9,13,599,0,.,13.50,0.00,0.00
15min,AgWx,beryljct,423,23AUG2021:09:30:00,74.8,14.1,74.8,75.2,74.2,75.3,73.1,29,33,24,0.891,39.9,42.8,34.4,5.875,4.9,95,14,6.9,0.00485,0.00592,59.0,64.8,13,643,0,.,13.49,0.00,0.00
15min,AgWx,beryljct,423,23AUG2021:09:45:00,76.7,14,77.8,78.6,76.2,78.6,75.0,27,31,17,0.607,39.0,43.9,30.4,10.68,7.5,135,31,13.7,0.00556,0.00708,58.7,64.7,13,685,0,.,13.50,0.00,0.00
15min,AgWx,beryljct,423,23AUG2021:10:00:00,78.3,13.95,78.2,79.0,78.8,79.4,78.0,17,18,16,0.561,30.5,32.4,29.2,12.36,12.4,175,13,17.7,0.00681,0.00930,59.8,64.6,13,727,0,.,13.49,0.00,0.00
15min,AgWx,beryljct,423,23AUG2021:10:15:00,79.6,13.94,78.7,79.6,79.3,79.9,78.4,17,18,16,0.568,30.6,32.2,29.3,12.8,12.7,178,12,16.6,0.00710,0.00966,59.2,64.5,13,764,0,.,13.49,0.00,0.00
15min,AgWx,beryljct,423,23AUG2021:10:30:00,80.5,13.9,79.7,79.8,79.8,80.5,79.2,17,19,16,0.651,31.3,34.5,29.8,15.5,13.3,177,12,19.6,0.00739,0.01005,60.5,64.5,13,798,0,.,13.49,0.00,0.00
15min,AgWx,beryljct,423,23AUG2021:10:45:00,81.3,13.49,80.2,80.8,80.4,81.3,79.7,17,18,16,0.562,31.3,33.5,29.7,13.59,13.5,186,17,22.6,0.00766,0.01040,60.5,64.4,13,827,0,.,13.49,0.00,0.00
15min,AgWx,beryljct,423,23AUG2021:11:00:00,81.9,13.47,81.5,81.1,81.0,81.7,80.0,17,19,16,0.604,32.1,35.4,30.1,15.67,12.3,185,18,20.1,0.00769,0.01027,60.4,64.4,13,853,0,.,13.49,0.00,0.00
15min,AgWx,beryljct,423,23AUG2021:11:15:00,82.5,13.48,81.6,81.7,81.4,82.2,80.3,16,17,15,0.578,31.0,33.2,29.6,15.65,13.9,189,13,20.5,0.00808,0.01095,61.4,64.4,13,878,0,.,13.49,0.00,0.00
15min,AgWx,beryljct,423,23AUG2021:11:30:00,83.0,13.48,80.9,80.7,81.7,82.8,80.4,16,17,15,0.579,31.0,33.1,28.9,8.57,12.4,190,13,19.4,0.00805,0.01074,61.9,64.4,13,895,0,.,13.49,0.00,0.00
15min,AgWx,beryljct,423,23AUG2021:11:45:00,83.3,13.49,80.9,82.0,81.7,82.8,80.6,16,18,14,0.556,30.7,33.5,28.6,9.91,14.5,186,20,23.0,0.00837,0.01135,62.3,64.4,13,911,0,.,13.49,0.00,0.00
15min,AgWx,beryljct,423,23AUG2021:12:00:00,83.8,13.43,83.0,82.5,82.6,84.0,81.8,15,16,13,0.558,29.8,31.6,27.8,9.67,14.4,189,14,20.1,0.00854,0.01158,62.6,64.4,13,924,0,.,13.49,0.00,0.00
15min,AgWx,beryljct,423,23AUG2021:12:15:00,84.3,13.48,83.0,83.7,82.9,84.1,81.5,16,19,14,0.628,32.2,36.6,28.9,13.26,12.9,179,16,18.4,0.00836,0.01115,63.1,64.4,13,931,0,.,13.49,0.00,0.00
15min,AgWx,beryljct,423,23AUG2021:12:30:00,84.7,13.44,80.6,82.4,83.1,84.2,82.4,16,18,15,0.576,32.2,35.8,30.3,15.17,14.8,175,12,20.0,0.00863,0.01170,62.7,64.5,13,936,0,.,13.49,0.00,0.00
15min,AgWx,beryljct,423,23AUG2021:12:45:00,84.8,13.43,82.3,82.4,82.6,83.8,81.6,16,19,14,0.715,32.6,36.0,29.9,9.21,12.1,171,26,18.9,0.00827,0.01094,64.5,64.5,13,936,0,.,13.49,0.00,0.00
15min,AgWx,beryljct,423,23AUG2021:13:00:00,84.9,13.44,82.3,82.5,83.5,84.6,82.1,15,18,14,0.559,30.7,34.2,28.8,8.94,13.5,190,16,20.5,0.00854,0.01149,65.1,64.6,13,934,0,.,13.49,0.00,0.00
15min,AgWx,beryljct,423,23AUG2021:13:15:00,85.3,13.48,84.0,84.4,83.3,84.4,82.4,15,18,13,0.570,31.1,35.4,28.9,14.84,13.3,168,15,20.8,0.00842,0.01130,65.6,64.7,13,926,0,.,13.49,0.00,0.00
15min,AgWx,beryljct,423,23AUG2021:13:30:00,85.7,13.42,84.2,83.2,83.7,84.7,83.0,16,19,14,0.658,32.6,37.0,28.5,12.21,14.4,165,17,21.9,0.00851,0.01154,66.2,64.8,13,913,0,.,13.49,0.00,0.00
15min,AgWx,beryljct,423,23AUG2021:13:45:00,86.1,13.41,82.5,84.1,84.0,84.6,83.2,16,18,14,0.596,33.2,35.9,30.0,18.22,13.0,166,12,20.6,0.00825,0.01108,66.8,64.9,13,897,0,.,13.50,0.00,0.00
15min,AgWx,beryljct,423,23AUG2021:14:00:00,86.5,13.37,83.8,83.5,83.9,85.4,82.8,16,19,14,0.670,33.5,37.2,30.1,12.89,12.7,166,17,19.5,0.00810,0.01089,66.7,65.1,13,880,0,.,13.49,0.00,0.00
15min,AgWx,beryljct,423,23AUG2021:14:15:00,86.9,13.38,82.9,84.4,84.5,86.0,83.4,16,19,14,0.545,33.4,37.4,29.2,15.87,12.4,175,22,20.0,0.00796,0.01069,67.9,65.2,13,858,0,.,13.49,0.00,0.00
15min,AgWx,beryljct,423,23AUG2021:14:30:00,87.4,13.36,84.8,85.5,85.4,86.8,84.0,14,15,12,0.516,30.4,32.4,27.9,4.384,9.9,204,23,17.7,0.00755,0.00998,68.4,65.4,13,834,0,.,13.49,0.00,0.00
15min,AgWx,beryljct,423,23AUG2021:14:45:00,88.0,13.38,85.0,84.3,85.5,86.2,84.3,14,17,12,0.508,30.7,35.4,27.1,7.585,11.9,190,20,20.7,0.00769,0.01042,67.7,65.6,13,809,0,.,13.49,0.00,0.00
15min,AgWx,beryljct,423,23AUG2021:15:00:00,88.3,13.34,85.1,85.1,85.5,86.6,84.2,13,14,12,0.547,29.0,31.4,26.9,5.437,11.5,185,16,20.5,0.00744,0.01014,68.0,65.8,13,776,0,.,13.49,0.00,0.00
15min,AgWx,beryljct,423,23AUG2021:15:15:00,88.6,13.33,85.7,85.9,85.7,86.6,84.8,12,14,11,0.479,27.6,31.5,25.5,13.04,13.0,188,15,22.3,0.00720,0.01013,68.8,66.0,13,700,0,.,13.49,0.00,0.00
15min,AgWx,beryljct,423,23AUG2021:15:30:00,88.8,13.39,85.0,86.0,86.2,87.0,85.3,12,13,11,0.500,27.3,29.6,24.9,15.5,13.2,195,16,19.3,0.00735,0.01035,69.2,66.2,13,710,0,.,13.49,0.00,0.00
15min,AgWx,beryljct,423,23AUG2021:15:45:00,88.8,13.3,84.6,85.8,86.1,86.5,85.6,11,13,10,0.454,26.0,28.9,23.2,14.07,14.3,201,10,18.9,0.00733,0.01050,69.5,66.4,13,675,0,.,13.49,0.00,0.00
15min,AgWx,beryljct,423,23AUG2021:16:00:00,88.8,13.32,84.7,85.3,85.5,86.2,84.6,11,12,10,0.476,25.5,27.4,23.1,12.17,12.5,206,15,17.1,0.00662,0.00946,70.0,66.6,13,620,0,.,13.49,0.00,0.00
15min,AgWx,beryljct,423,23AUG2021:16:15:00,88.6,13.32,84.5,84.8,85.6,86.2,84.8,11,12,9.6,0.444,24.3,27.1,22.2,13.31,13.9,192,11,21.8,0.00668,0.00976,70.3,66.8,13,588,0,.,13.49,0.00,0.00
15min,AgWx,beryljct,423,23AUG2021:16:30:00,88.3,13.32,85.9,85.3,85.1,85.8,84.6,10,11,9.9,0.420,23.5,25.3,21.9,14.05,14.2,200,16,19.7,0.00643,0.00953,70.6,67.0,13,545,0,.,13.49,0.00,0.00
15min,AgWx,beryljct,423,23AUG2021:16:45:00,87.8,13.3,84.2,84.3,84.7,85.8,84.2,10,11,9.7,0.417,22.5,24.7,21.3,13.2,14.9,211,9.2,21.0,0.00621,0.00940,70.7,67.2,13,497,0,.,13.49,0.00,0.00
15min,AgWx,beryljct,423,23AUG2021:17:00:00,87.3,13.39,83.5,84.1,84.2,84.5,83.8,11,13,10,0.472,24.2,27.2,22.3,16.44,15.0,216,11,22.5,0.00583,0.00895,71.0,67.4,13,445,0,.,13.50,0.00,0.00
15min,AgWx,beryljct,423,23AUG2021:17:15:00,86.7,13.36,83.1,83.6,84.1,84.5,83.6,12,13,10,0.410,25.0,28.7,22.3,17.65,13.9,207,11,20.6,0.00531,0.00823,71.2,67.6,13,395,0,.,13.49,0.00,0.00
15min,AgWx,beryljct,423,23AUG2021:17:30:00,86.0,13.38,83.1,83.1,83.2,83.6,82.9,11,13,10,0.486,23.9,26.6,21.7,13.15,15.0,210,8.9,20.4,0.00515,0.00821,71.3,67.8,13,343,0,.,13.50,0.00,0.00
15min,AgWx,beryljct,423,23AUG2021:17:45:00,85.2,13.38,81.9,82.3,82.5,83.2,82.2,12,13,12,0.463,24.8,26.2,24.1,13.66,16.1,209,8.6,20.9,0.00495,0.00808,71.3,68.0,13,290,0,.,13.50,0.00,0.00
15min,AgWx,beryljct,423,23AUG2021:18:00:00,84.4,13.3,81.3,81.7,82.0,82.4,81.7,12,13,11,0.416,23.6,26.7,21.4,13.9,15.1,210,7.7,21.1,0.00445,0.00741,71.3,68.2,13,241,0,.,13.50,0.00,0.00
15min,AgWx,beryljct,423,23AUG2021:18:15:00,83.6,13.13,81.3,81.1,81.5,81.8,81.1,12,13,11,0.436,24.3,25.5,22.8,16.13,13.3,204,8.4,17.4,0.00375,0.00639,71.1,68.4,13,192,0,.,13.50,0.00,0.00
15min,AgWx,beryljct,423,23AUG2021:18:30:00,82.8,13.05,80.0,80.1,80.8,81.3,80.1,12,13,11,0.460,23.7,25.1,22.4,11.64,13.5,208,9.2,18.7,0.00210,0.00266,70.9,68.6,13,145,0,.,13.50,0.00,0.00
15min,AgWx,beryljct,423,23AUG2021:18:45:00,81.8,13.05,78.5,79.5,79.9,80.2,79.5,13,13,12,0.454,24.0,24.9,23.2,7.782,11.9,205,9.7,15.4,0.00184,0.00237,70.8,68.8,13,100,0,.,13.50,0.00,0.00
15min,AgWx,beryljct,423,23AUG2021:19:00:00,80.5,13.02,77.3,77.6,78.7,79.4,77.6,13,14,13,0.445,24.3,25.3,23.6,10.37,10.8,204,7.8,16.2,0.00158,0.00207,70.6,68.9,13,57,0,.,13.50,0.00,0.00
15min,AgWx,beryljct,423,23AUG2021:19:15:00,79.0,13,75.6,76.2,76.7,77.8,76.1,15,15,14,0.459,24.9,25.5,24.0,8.64,8.7,206,6.6,12.6,0.00120,0.00163,70.4,69.0,13,14,0,.,13.50,0.00,0.00
15min,AgWx,beryljct,423,23AUG2021:19:30:00,77.2,12.97,75.1,75.4,75.3,76.2,74.7,15,16,15,0.448,25.1,26.0,24.0,8.07,7.7,207,7.0,10.4,0.00102,0.00141,70.0,69.1,13,3,0,.,13.51,0.00,0.00
15min,AgWx,beryljct,423,23AUG2021:19:45:00,75.6,12.97,75.2,74.1,74.4,75.6,73.9,16,16,15,0.453,25.0,25.5,24.3,9.91,7.4,196,7.1,10.7,0.00095,0.00132,69.6,69.3,14,0,0,.,13.51,0.00,0.00
15min,AgWx,beryljct,423,23AUG2021:20:00:00,74.5,12.95,73.8,73.4,73.9,74.3,73.4,16,17,15,0.471,25.2,26.1,24.4,7.914,7.4,202,6.6,9.8,0.00094,0.00130,69.3,69.3,13,0,0,.,13.50,0.00,0.00
15min,AgWx,beryljct,423,23AUG2021:20:15:00,73.6,12.95,73.1,72.4,73.2,74.0,72.4,17,17,16,0.470,25.4,25.9,24.7,6.862,7.0,203,4.7,9.4,0.00088,0.00123,70.1,69.4,14,0,0,.,13.51,0.00,0.00
15min,AgWx,beryljct,423,23AUG2021:20:30:00,72.7,12.95,72.8,71.7,72.0,72.5,71.6,17,18,17,0.466,25.4,26.0,24.8,6.533,6.1,204,4.4,8.1,0.00074,0.00106,69.2,69.4,13,0,0,.,13.51,0.00,0.00
15min,AgWx,beryljct,423,23AUG2021:20:45:00,71.5,12.94,66.8,66.5,68.9,71.9,64.3,22,29,17,0.531,28.0,31.7,25.2,3.025,4.5,188,21,8.0,0.00045,0.00068,70.0,69.5,14,0,0,.,13.51,0.00,0.00
15min,AgWx,beryljct,423,23AUG2021:21:00:00,69.3,12.92,60.8,60.1,63.6,67.1,60.0,30,35,23,0.616,31.2,33.5,28.0,5.459,3.5,163,25,6.0,0.00022,0.00036,69.5,69.5,13,0,0,.,13.51,0.00,0.00
15min,AgWx,beryljct,423,23AUG2021:21:15:00,66.5,12.92,55.5,55.5,57.9,60.3,55.3,45,55,35,0.814,36.5,39.4,32.1,7.453,5.9,136,5.9,8.0,0.00031,0.00044,69.3,69.5,14,0,0,.,13.52,0.00,0.00
15min,AgWx,beryljct,423,23AUG2021:21:30:00,64.5,12.92,62.7,63.9,61.0,65.3,55.4,37,54,26,0.606,33.7,39.1,29.9,5.765,7.1,161,13,8.8,0.00051,0.00069,69.1,69.5,13,0,0,.,13.52,0.00,0.00
15min,AgWx,beryljct,423,23AUG2021:21:45:00,64.1,12.91,62.9,63.4,63.4,64.1,62.5,30,32,29,0.599,31.6,32.1,31.1,6.927,6.5,178,7.0,8.2,0.00054,0.00075,68.8,69.5,13,0,0,.,13.52,0.00,0.00
15min,AgWx,beryljct,423,23AUG2021:22:00:00,63.8,12.91,64.0,63.0,62.5,63.3,61.5,31,34,29,0.576,31.7,32.7,30.6,4.757,5.4,179,8.9,6.9,0.00042,0.00060,68.4,69.5,13,0,0,.,13.51,0.00,0.00
15min,AgWx,beryljct,423,23AUG2021:22:15:00,63.4,12.89,61.1,62.9,63.3,63.8,62.9,29,31,28,0.611,30.7,32.0,30.0,5.919,5.1,168,5.3,6.2,0.00042,0.00061,68.2,69.5,14,0,0,.,13.52,0.00,0.00
15min,AgWx,beryljct,423,23AUG2021:22:30:00,63.1,12.89,63.2,63.4,62.8,63.5,62.0,30,33,29,0.589,30.9,32.5,30.3,6.05,6.3,172,7.0,7.5,0.00052,0.00072,67.9,69.4,13,0,0,.,13.52,0.00,0.00
15min,AgWx,beryljct,423,23AUG2021:22:45:00,63.2,12.89,64.1,63.5,63.6,64.6,62.6,30,33,29,0.616,32.0,33.0,31.3,4.801,5.9,172,7.8,8.4,0.00048,0.00069,67.6,69.4,14,0,0,.,13.52,0.00,0.00
15min,AgWx,beryljct,423,23AUG2021:23:00:00,62.8,12.88,62.7,61.9,61.0,64.5,59.3,38,41,30,0.680,34.9,35.9,32.0,7.3,7.8,150,11,10.4,0.00053,0.00071,67.2,69.4,13,0,0,.,13.52,0.00,0.00
15min,AgWx,beryljct,423,23AUG2021:23:15:00,62.4,12.88,60.5,60.2,61.1,62.6,59.5,38,42,35,0.713,35.5,36.2,34.4,6.883,6.0,172,13,8.5,0.00040,0.00057,67.0,69.3,13,0,0,.,13.52,0.00,0.00
15min,AgWx,beryljct,423,23AUG2021:23:30:00,61.8,12.87,60.9,60.6,60.4,61.1,59.5,40,42,39,0.712,35.9,36.3,35.6,6.708,5.7,171,11,8.3,0.00036,0.00051,66.7,69.2,13,0,0,.,13.52,0.00,0.00
15min,AgWx,beryljct,423,23AUG2021:23:45:00,61.4,12.87,60.0,60.2,61.4,62.2,60.2,37,39,36,0.686,34.9,35.8,34.5,5.283,5.2,178,7.2,7.8,0.00034,0.00050,66.5,69.1,14,0,0,.,13.53,0.00,0.00
15min,AgWx,bigpiney,439,23AUG2021:00:00:00,43.6,12.62,40.7,40.1,39.1,40.1,38.6,89,90,88,0.748,36.1,37.1,35.4,3.595,3.9,237,17,5.1,-0.00006,-0.00007,54.3,53.5,44,0,0,0.0,4.24,0.00,0.00
15min,AgWx,bigpiney,439,23AUG2021:00:15:00,43.3,12.6,43.0,43.6,41.7,44.8,40.1,87,89,78,0.759,38.0,39.7,36.8,2.762,3.3,259,15,4.5,-0.00007,-0.00008,54.2,53.4,44,0,0,0.0,4.24,0.00,0.00
15min,AgWx,bigpiney,439,23AUG2021:00:30:00,43.2,12.6,41.1,40.5,40.6,43.4,39.6,86,88,79,0.754,36.7,38.1,35.8,3.376,4.7,233,14,5.8,-0.00003,-0.00003,54.1,53.5,44,0,0,0.0,4.24,0.00,0.00
15min,AgWx,bigpiney,439,23AUG2021:00:45:00,43.1,12.59,41.0,40.7,40.7,41.3,40.1,88,89,87,0.751,37.4,38.2,36.9,4.187,3.0,242,12,4.2,-0.00008,-0.00009,54.0,53.4,44,0,0,0.0,4.24,0.00,0.00
15min,AgWx,bigpiney,439,23AUG2021:01:00:00,43.0,12.59,43.7,43.7,42.6,44.2,40.8,85,89,81,0.792,38.5,39.6,37.1,4.472,4.0,282,29,4.7,-0.00004,-0.00004,53.9,53.4,44,0,0,0.0,4.24,0.00,0.00
15min,AgWx,bigpiney,439,23AUG2021:01:15:00,43.0,12.57,43.6,43.8,43.8,44.5,42.9,83,85,81,0.806,39.0,39.6,37.6,4.56,4.5,313,11,5.6,-0.00002,-0.00001,53.8,53.4,44,0,0,0.0,4.24,0.00,0.00
15min,AgWx,bigpiney,439,23AUG2021:01:30:00,43.2,12.58,43.3,43.0,42.9,43.7,42.6,86,88,83,0.831,39.1,39.8,38.2,3.31,3.9,317,10,4.6,-0.00005,-0.00005,53.7,53.4,44,0,0,0.0,4.24,0.00,0.00
15min,AgWx,bigpiney,439,23AUG2021:01:45:00,43.8,12.57,45.4,45.1,43.9,45.1,43.0,87,88,84,0.856,40.3,40.6,39.8,3.573,3.9,282,6.5,5.1,-0.00006,-0.00006,53.6,53.3,44,0,0,0.0,4.24,0.00,0.00
15min,AgWx,bigpiney,439,23AUG2021:02:00:00,44.5,12.57,42.2,42.7,44.1,45.2,42.7,85,88,82,0.818,39.8,40.6,39.0,4.932,3.0,214,19,4.9,-0.00007,-0.00008,53.5,53.3,44,0,0,0.0,4.24,0.00,0.00
15min,AgWx,bigpiney,439,23AUG2021:02:15:00,44.7,12.56,41.0,40.8,41.3,42.6,40.6,89,91,87,0.786,38.5,39.4,37.9,2.85,4.1,210,7.2,5.1,-0.00006,-0.00007,53.4,53.3,44,0,0,0.0,4.24,0.00,0.00
15min,AgWx,bigpiney,439,23AUG2021:02:30:00,44.7,12.56,41.3,41.2,41.0,41.4,40.8,91,91,90,0.793,38.5,38.7,38.3,3.727,3.6,208,6.9,4.4,-0.00008,-0.00009,53.3,53.3,44,0,0,0.0,4.24,0.00,0.00
15min,AgWx,bigpiney,439,23AUG2021:02:45:00,44.7,12.54,41.7,41.5,41.4,41.6,41.2,90,91,90,0.803,38.8,39.0,38.5,4.121,4.2,212,4.6,4.8,-0.00006,-0.00007,53.2,53.3,44,0,0,0.0,4.24,0.00,0.00
15min,AgWx,bigpiney,439,23AUG2021:03:00:00,44.7,12.53,42.5,42.4,42.0,42.4,41.5,90,90,89,0.813,39.2,39.5,38.9,3.836,4.2,217,4.3,5.1,-0.00006,-0.00007,53.1,53.2,44,0,0,0.0,4.24,0.00,0.00
15min,AgWx,bigpiney,439,23AUG2021:03:15:00,44.7,12.53,41.7,41.9,42.5,42.9,41.9,88,89,87,0.803,39.2,39.5,38.7,3.201,3.5,217,3.2,3.9,-0.00007,-0.00008,53.0,53.2,44,0,0,0.0,4.24,0.00,0.00
15min,AgWx,bigpiney,439,23AUG2021:03:30:00,44.3,12.52,40.2,39.7,40.0,41.9,38.8,90,92,88,0.763,37.2,38.8,35.7,3.069,3.3,219,13,4.4,-0.00008,-0.00009,53.0,53.1,44,0,0,0.0,4.24,0.00,0.00
15min,AgWx,bigpiney,439,23AUG2021:03:45:00,43.9,12.51,44.4,43.5,41.4,43.5,39.7,92,92,91,0.888,39.2,41.5,37.7,4.034,3.5,290,40,4.3,-0.00008,-0.00010,52.9,53.1,44,0,0,0.0,4.24,0.00,0.00
15min,AgWx,bigpiney,439,23AUG2021:04:00:00,43.8,12.51,43.5,43.6,43.8,44.0,43.5,90,92,88,0.848,41.0,41.7,40.3,3.244,3.8,327,8.3,4.7,-0.00007,-0.00008,52.8,53.1,44,0,0,0.0,4.24,0.00,0.00
15min,AgWx,bigpiney,439,23AUG2021:04:15:00,44.0,12.5,43.5,43.3,43.4,43.6,43.2,88,88,87,0.842,40.0,40.2,39.8,2.499,4.2,335,7.1,6.3,-0.00005,-0.00005,52.8,53.1,44,0,0,0.0,4.24,0.00,0.00
15min,AgWx,bigpiney,439,23AUG2021:04:30:00,44.2,12.5,40.0,41.2,42.9,43.4,41.2,89,90,88,0.772,39.8,40.3,37.9,3.858,1.5,329,89,3.9,-0.00013,-0.00018,52.7,53.0,44,0,0,0.0,4.24,0.00,0.00
15min,AgWx,bigpiney,439,23AUG2021:04:45:00,43.9,12.48,38.8,38.8,39.0,41.1,38.4,90,92,88,0.733,36.4,37.7,35.8,1.447,3.5,207,4.6,4.4,-0.00007,-0.00009,52.6,53.0,44,0,0,0.0,4.24,0.00,0.00
15min,AgWx,bigpiney,439,23AUG2021:05:00:00,43.3,12.47,38.9,38.8,39.0,39.3,38.7,92,92,91,0.733,36.8,37.2,36.4,4.56,3.7,208,12,5.0,-0.00008,-0.00009,52.5,53.0,44,0,0,0.0,4.24,0.00,0.00
15min,AgWx,bigpiney,439,23AUG2021:05:15:00,42.8,12.46,39.9,39.7,39.1,39.7,38.7,92,92,91,0.755,36.9,37.6,36.4,3.069,3.9,199,18,5.3,-0.00007,-0.00008,52.4,52.9,44,0,0,0.0,4.24,0.00,0.00
15min,AgWx,bigpiney,439,23AUG2021:05:30:00,42.6,12.45,38.9,39.3,39.6,40.1,39.3,91,92,90,0.732,37.2,37.8,36.5,3.771,3.8,193,21,5.8,-0.00007,-0.00008,52.4,52.9,44,1,0,0.0,4.24,0.00,0.00
15min,AgWx,bigpiney,439,23AUG2021:05:45:00,42.3,12.44,38.5,38.9,39.2,40.2,38.7,91,92,89,0.718,36.8,38.0,36.1,3.551,3.7,214,18,4.7,-0.00007,-0.00008,52.3,52.9,44,4,0,0.0,4.24,0.00,0.00
15min,AgWx,bigpiney,439,23AUG2021:06:00:00,42.0,12.46,39.4,39.0,39.0,39.2,38.7,91,92,89,0.736,36.5,37.0,35.8,3.924,3.9,215,5.9,4.9,-0.00012,-0.00008,52.2,52.8,44,14,0,0.0,4.24,0.00,0.00
15min,AgWx,bigpiney,439,23AUG2021:06:15:00,41.7,12.5,38.5,38.6,38.7,39.1,38.5,91,92,91,0.723,36.4,36.8,36.1,3.31,3.6,226,5.8,4.3,-0.00011,-0.00008,52.2,52.8,44,42,0,0.0,4.24,0.00,0.00
15min,AgWx,bigpiney,439,23AUG2021:06:30:00,41.7,12.54,41.4,40.9,39.8,40.9,38.5,92,93,91,0.806,37.7,39.0,36.2,2.236,2.9,226,9.3,4.0,0.00002,0.00005,52.1,52.8,44,90,0,0.0,4.24,0.00,0.00
15min,AgWx,bigpiney,439,23AUG2021:06:45:00,42.4,12.6,44.8,44.4,42.8,44.4,41.0,92,93,91,0.902,40.6,41.9,39.1,0,0.9,241,13,2.1,0.00022,0.00024,52.0,52.8,44,126,0,0.0,4.24,0.00,0.00
15min,AgWx,bigpiney,439,23AUG2021:07:00:00,43.9,12.67,45.9,45.8,45.7,46.6,44.4,87,91,84,0.940,42.1,43.0,41.1,1.688,0.7,158,4.1,2.7,0.00049,0.00053,52.0,52.7,44,173,0,0.0,4.24,0.00,0.00
15min,AgWx,bigpiney,439,23AUG2021:07:15:00,45.7,12.83,48.9,48.1,46.9,48.1,45.8,88,91,83,0.965,43.5,44.3,42.8,0,0.4,204,21,1.9,0.00077,0.00083,51.9,52.7,44,220,0,0.0,4.24,0.00,0.00
15min,AgWx,bigpiney,439,23AUG2021:07:30:00,47.4,13.12,50.4,49.8,48.7,49.8,47.9,84,86,81,0.996,44.0,44.8,43.4,0,0.1,185,6.6,1.1,0.00107,0.00114,51.9,52.7,44,267,0,0.0,4.24,0.00,0.00
15min,AgWx,bigpiney,439,23AUG2021:07:45:00,49.0,13.36,51.3,51.5,50.9,51.8,49.7,77,82,71,0.960,44.0,45.4,42.5,1.885,0.8,210,25,2.7,0.00138,0.00151,51.8,52.6,44,313,0,0.0,4.24,0.00,0.00
15min,AgWx,bigpiney,439,23AUG2021:08:00:00,51.1,13.52,52.4,52.4,52.2,52.8,51.5,75,79,68,0.912,44.4,45.9,42.2,0,1.0,246,75,3.6,0.00171,0.00187,51.7,52.6,44,363,0,0.0,4.24,0.00,0.00
15min,AgWx,bigpiney,439,23AUG2021:08:15:00,53.4,13.83,53.8,53.7,53.2,53.7,52.4,65,68,62,0.918,41.9,42.7,40.9,2.192,0.9,113,39,5.0,0.00203,0.00221,51.7,52.6,44,411,0,0.0,4.24,0.00,0.00